Meteo Giornale » Osservazioni meteo Italia » Milano-Malpensa

ore: 08:50 - Osservazioni Meteo Milano-Malpensa
Lat. 45° 37' N Lon. 8° 44' E Alt. 234 metri s.l.m.

sereno Europe/Rome

10 °C

Sereno

Temp. 24 Ore

8 °C

18 °C

Nord

3.7 Km/h

Dew point 9 °C

Umidità 93 %

Visibilità  10 Km

Il sole sorge alle ore 07:41

Il sole tramonta alle ore 18:39

Data e Ora Cielo e Fenomeni T °C DP °C Um. % Pres. hPa Vis. km Vento km/h
Oggi h: 08:50 sereno Sereno 10 9 93 1016 10 N 3.7
Oggi h: 08:20 nebbia Nebbia a Strati 10 9 93 1015 10 N 11.1
Oggi h: 07:50 nebbia Nebbia a Strati 9 9 100 1015 10 N/NO 9.3
Oggi h: 06:50 sereno Sereno 9 9 100 1014 10 N 1.8
Oggi h: 06:20 sereno Sereno 9 8 93 1014 10 N 7.4
Oggi h: 05:20 sereno Sereno 8 8 100 1014 10 N 5.5
Oggi h: 04:50 sereno Sereno 9 9 100 1014 10 N/NO 11.1
Oggi h: 04:20 sereno Sereno 9 9 100 1014 10 N 13
Oggi h: 03:50 sereno Sereno 8 8 100 1013 10 N/NE 9.3
Oggi h: 03:20 sereno Sereno 10 9 93 1013 10 NE 14.8
Oggi h: 02:50 sereno Sereno 10 9 93 1013 10 N 13
Oggi h: 02:20 sereno Sereno 10 9 93 1013 10 N 7.4
Oggi h: 01:50 sereno Sereno 10 9 93 1013 10 N/NE 13
Oggi h: 01:20 sereno Sereno 10 10 100 1013 10 N/NE 9.3
Oggi h: 00:50 sereno Sereno 11 11 100 1012 10 N 13
Oggi h: 00:20 sereno Sereno 11 11 100 1012 10 N/NE 9.3
Ieri h: 23:50 sereno Sereno 11 11 100 1012 10 N/NE 14.8
Ieri h: 23:20 coperto_temporali Temporale 11 11 100 1011 10 N 31.5
Ieri h: 22:50 nuvoloso_temporali Temporale con Pioggia 11 11 100 1011 3 N/NO 44.4
Ieri h: 22:20 nuvoloso_temporali Temporale con Pioggia 16 16 100 1010 3 E 18.5
Ieri h: 21:50 foschia Foschia 16 16 100 1009 5 E/SE 25.9
Ieri h: 21:20 foschia Foschia 17 17 100 1008 5 E/SE 25.9
Ieri h: 20:20 foschia Foschia 17 17 100 1008 5 E/SE 20.3
Ieri h: 19:50 coperto_pioggia Pioggia Debole Foschia 17 17 100 1008 5 SE 22.2
Ieri h: 19:20 coperto_pioggia Pioggia Debole Foschia 17 17 100 1008 5 SE 29.6
Ieri h: 18:20 coperto_pioggia Pioggia Foschia 17 17 100 1008 5 SE 11.1
Ieri h: 17:50 molto_nuvoloso Molto Nuvoloso 17 17 100 1008 8 E/SE 13
Ieri h: 17:20 foschia Foschia 17 17 100 1008 5 E/SE 20.3
Ieri h: 16:50 coperto_pioggia Pioggia Debole 18 18 100 1009 4 E/SE 18.5
Ieri h: 16:20 coperto_pioggia Pioggia Debole 17 17 100 1008 5 E/SE 13
Ieri h: 15:50 coperto_pioggia Pioggia Debole 17 17 100 1009 5 SE 9.3
Ieri h: 15:20 nuvoloso_temporali Temporale con Pioggia 17 17 100 1010 2 S 24
Ieri h: 14:50 coperto_pioggia Pioggia 17 17 100 1009 2 E/SE 33.3
Ieri h: 14:20 coperto_pioggia Pioggia Foschia 17 17 100 1009 2 E/SE 29.6
Ieri h: 13:50 coperto_pioggia Pioggia Foschia 17 17 100 1009 3 E/SE 33.3
Ieri h: 13:20 coperto_pioggia Pioggia Foschia 16 16 100 1010 2 E 18.5
Ieri h: 12:50 coperto_pioggia Pioggia Foschia 16 16 100 1011 2 E/SE 22.2
Ieri h: 12:20 nuvoloso_piovaschi Rovescio di Pioggia Foschia 16 16 100 1012 2 E 16.7
Ieri h: 11:50 coperto_pioggia Pioggia Foschia 16 16 100 1012 2 E/SE 27.8
Ieri h: 11:20 coperto_pioggia Pioggia Foschia 16 16 100 1012 3 E/SE 27.8
Ieri h: 10:50 nuvoloso_piovaschi Rovescio di Pioggia Foschia 16 16 100 1013 3 E/SE 29.6
Ieri h: 10:20 foschia Foschia 16 16 100 1013 3 E 25.9
Ieri h: 09:50 coperto_pioggia Pioggia Foschia 16 16 100 1013 2 E 24